AirNav   Bose ProFlight Series 2 Headset
 
 1628 users online  

4N1 Greenwood Lake Airport
West Milford, New Jersey, USA

GOING TO WEST MILFORD?


FAA INFORMATION EFFECTIVE 27 FEBRUARY 2020

Location

FAA Identifier: 4N1
Lat/Long: 41-07-42.2000N 074-20-47.5000W
41-07.703333N 074-20.791667W
41.1283889,-74.3465278
(estimated)
Elevation: 789.6 ft. / 240.7 m (surveyed)
Variation: 13W (1995)
From city: 1 mile E of WEST MILFORD, NJ
Time zone: UTC -5 (UTC -4 during Daylight Saving Time)
Zip code: 07480

Airport Operations

Airport use: Open to the public
Activation date: 06/1960
Control tower: no
ARTCC: NEW YORK CENTER
FSS: MILLVILLE FLIGHT SERVICE STATION
NOTAMs facility: MIV (NOTAM-D service available)
Attendance: 0800-1700
Wind indicator: lighted
Segmented circle: no
Lights: ACTVT MIRL RY 06/24 - CTAF.
Beacon: white-green (lighted land airport)
Operates sunset to sunrise.

Airport Communications

CTAF: 122.9
NEW YORK APPROACH: 127.6
NEW YORK DEPARTURE: 127.6
WX ASOS at FWN (13 nm W): 118.525 (973-875-0859)
WX ASOS at CDW (15 nm S): 135.5 (973-575-4417)
WX ASOS at 12N (19 nm W): PHONE 917-786-7221
WX AWOS-3 at MMU (20 nm S): PHONE 973-290-0135

Nearby radio navigation aids

VOR radial/distance  VOR name  Freq  Var
SAXr078/9.4SPARTA VORTAC115.7011W
HUOr158/20.2HUGUENOT VOR/DME116.1011W
TEBr334/21.2TETERBORO VOR/DME108.4011W
STWr082/24.9STILLWATER VOR/DME109.6011W
BWZr058/29.3BROADWAY VOR/DME114.2011W
LGAr326/29.9LA GUARDIA VOR/DME113.1012W
CMKr267/35.7CARMEL VOR/DME116.6012W
CRIr337/37.1CANARSIE VOR/DME112.3011W
SBJr039/37.3SOLBERG VOR/DME112.9010W
JFKr331/39.6KENNEDY VOR/DME115.9012W
IGNr228/39.9KINGSTON VOR/DME117.6012W

 
NDB name  Hdg/Dist  Freq  Var  ID
CHATHAM022/23.625413WCAT -.-. .- -
STANWYCK222/27.626112WSKU ... -.- ..-

Airport Services

Fuel available: 100LL JET-A
Parking: tiedowns
Airframe service: MAJOR
Powerplant service: MAJOR
Bottled oxygen: NONE
Bulk oxygen: NONE

Runway Information

Runway 6/24

Dimensions: 3471 x 60 ft. / 1058 x 18 m
Surface: asphalt, in good condition
Runway edge lights: medium intensity
RUNWAY 6  RUNWAY 24
Latitude: 41-07.510958N41-07.894688N
Longitude: 074-21.072025W074-20.511670W
Elevation: 789.3 ft.789.4 ft.
Traffic pattern: rightleft
Runway heading: 061 magnetic, 048 true241 magnetic, 228 true
Markings: nonprecision, in good conditionnonprecision, in good condition
Visual slope indicator: 2-light PAPI on left (3.50 degrees glide path)
PAPI OPERATES CONTINOUSLY.
Runway end identifier lights: nono
Touchdown point: yes, no lightsyes, no lights
Obstructions: 192 ft. trees, 1988 ft. from runway, 170 ft. right of centerline, 9:1 slope to clear
TREES BELOW RWY END, CLIFF.
23 ft. tree, 680 ft. from runway, 132 ft. left of centerline, 20:1 slope to clear

Airport Ownership and Management from official FAA records

Ownership: Publicly-owned
Owner: N.J. DEPT. TRANSPORTATION
1035 PARKWAY AVE. P.O. BOX 610, PO BOX 600
TRENTON, NJ 08625
Phone 609-530-2900
Manager: TIM WAGNER
126A AIRPORT RD BOX 1
WEST MILFORD, NJ 07480
Phone 973-728-7721

Airport Operational Statistics

Aircraft based on the field: 57
Single engine airplanes: 51
Multi engine airplanes: 4
Helicopters: 1
Ultralights: 1
    
Aircraft operations: avg 42/day *
74% local general aviation
26% transient general aviation
* for 12-month period ending 28 February 2019

Additional Remarks

RY 06/24 STEEP ROCK LEDGES LCTD JUST BYD BOTH RY ENDS.
ARPT SUBJECT TO GUSTING WIND & FREQUENT CROSSWINDS.
SOME RY AND TY LGTS TALLER THAN STANDARD.
GCO AVBL ON FREQ 121.725 THRU NYAI FSS, IF UNABLE, CTC NEW YORK APCH AT 800-645-3206.
DEER AND BIRDS ON AND INVOF ARPT.

Instrument Procedures

NOTE: All procedures below are presented as PDF files. If you need a reader for these files, you should download the free Adobe Reader.

NOT FOR NAVIGATION. Please procure official charts for flight.
FAA instrument procedures published for use from 27 February 2020 at 0901Z to 26 March 2020 at 0900Z.

 
IAPs - Instrument Approach Procedures
RNAV (GPS) RWY 06   download (179KB)
RNAV (GPS) RWY 24   download (193KB)
NOTE: Special Take-Off Minimums/Departure Procedures apply   download (150KB)

Other nearby airports with instrument procedures:

N07 - Lincoln Park Airport (11 nm S)
KFWN - Sussex Airport (13 nm W)
KCDW - Essex County Airport (15 nm S)
06N - Randall Airport (18 nm N)
12N - Aeroflex-Andover Airport (19 nm W)
KMMU - Morristown Municipal Airport (20 nm S)
 
Loc | Ops | Rwys | IFR | FBO | Links
Com | Nav | Svcs | Stats | Notes
Area around 4N1 (Greenwood Lake Airport)
 
Road maps at: MapQuest Bing Google
 
Aerial photo
WARNING: Photo may not be current or correct
Aerial photo of 4N1 (Greenwood Lake Airport)
Photo by Wendy Silcox McPherson
Photo taken 17-Nov-2012
looking south.

Do you have a better or more recent aerial photo of Greenwood Lake Airport that you would like to share? If so, please send us your photo.

 
Sectional chart

 
Airport distance calculator
Flying to Greenwood Lake Airport? Find the distance to fly.

From to 4N1

Sunrise and sunset
Times for 27-Feb-2020
 Local
(UTC-5)
 Zulu
(UTC)
Morning civil twilight06:0811:08
Sunrise06:3611:36
Sunset17:4522:45
Evening civil twilight18:1223:12

Current date and time
Zulu (UTC)  27-Feb-2020 14:53:06
Local (UTC-5)  27-Feb-2020 09:53:06
 
METAR
KFWN 
14nm W 
271428Z AUTO 26009G21KT 10SM -RA FEW023 SCT029 OVC036 02/M03 A2947 RMK AO2 RAB09SNE09 P0001 T00221033 $
KCDW 
15nm S 
271353Z 27015G26KT 230V290 10SM OVC034 05/M03 A2947 RMK AO2 PK WND 28030/1336 SLP986 T00501028
K12N 
19nm W 
271354Z AUTO 24010G19KT 210V280 02/M03 A2948 RMK AO1 SLP988 T00221033
KTEB 
21nm SE 
271351Z 26020G28KT 10SM FEW032 BKN070 04/M02 A2945 RMK AO2 PK WND 28036/1301 SLP972 T00441017
KMMU 
21nm S 
271345Z 28014G25KT 10SM BKN033 04/00 A2949 RMK PRESRR
KMGJ 
24nm N 
SuperAWOS
271417Z AUTO 27013G25KT 10SM SCT024 BKN031 OVC085 02/M01 A2942 RMK AO2 UPB1357E07SNB07E08 P0000 T00221011
KSWF 
25nm NE 
271415Z 29020G30KT 7SM SCT010 BKN030 03/01 A2940
KNYC 
27nm SE 
271351Z AUTO 25009G25KT 220V280 10SM BKN032 OVC070 05/M02 A2948 RMK AO2 PK WND 29026/1314 SLP974 T00501022 $
TAF
KTEB 
21nm SE 
270719Z 2707/2812 09012KT 5SM SHRA BR OVC006 FM270900 14013G20KT 5SM SHRA BR BKN006 OVC010 FM271000 22014G24KT 6SM BR VCSH BKN020 FM271200 25015G28KT P6SM FEW030 BKN050 FM271600 27020G32KT P6SM SCT050 FM280200 27015G25KT P6SM FEW050 FM280700 25014G23KT P6SM FEW050
KSWF 
25nm NE 
270531Z 2706/2812 12010G20KT 2SM SHRA BR OVC007 FM270900 12010KT 2SM SHRA BR OVC005 FM271100 26017G30KT P6SM BKN015 FM271500 28022G34KT P6SM FEW020 BKN040 FM280200 28015G25KT P6SM SCT040 AMD NOT SKED
NOTAMs
Click for the latest NOTAMs
NOTAMs are issued by the DoD/FAA and will open in a separate window not controlled by AirNav.

 

 
 

FBO, Fuel Providers, and Aircraft Ground Support

  
 Business Name 
 
 Contact 
 
 Services / Description 
 
Fuel Prices
 
Comments
  
Greenwood Lake Airport Management 973-728-7721
[web site]
[email]
Airport management, Aviation fuel, Aircraft ground handling, Aircraft parking (ramp or tiedown), Hangars, Hangar leasing / sales, Passenger terminal and lounge, ...

More info about Greenwood Lake Airport Management
Phillips 66
100LL Jet A
FS $5.59 $5.49 
SS $5.29 $5.49 
 Updated 18-Feb-2020
  no comments
FS=Full service
SS=Self service
Update Fuel Prices
 

Would you like to see your business listed on this page?

 If your business provides an interesting product or service to pilots, flight crews, aircraft, or users of the Greenwood Lake Airport, you should consider listing it here.  To start the listing process, click on the button below
 
Add a business
 

Other Pages about Greenwood Lake Airport

Update a link
 
Copyright © AirNav, LLC. All rights reserved. Privacy Policy  Contact